Location: ?????
(37.7324°N, 23.9257°E)
Time: 06:57:51
(UTC+00:00)

SKYMED 3 - Pass Details

Date: 29 November 2020
Orbit: 621 x 623 km, 97.9° (Epoch: 17 January)

Event Time Altitude Azimuth Distance (km) Brightness Sun altitude
Rises 03:43:57 0° 169° (S) 2,887 8.3 -18.5°
Reaches altitude 10° 03:46:08 10° 170° (S) 1,985 7.4 -18.0°
Maximum altitude 03:50:27 80° 258° (WSW) 638 4.4 -17.2°
Drops below altitude 10° 03:54:49 10° 345° (NNW) 2,001 6.9 -16.4°
Enters shadow 03:55:15 - 346° (NNW) 2,179 7.1 -16.3°
